This is the latest recevied weather packets stored in our database for station/object NU3S-7. If no packets are shown the sender has not sent any weather packets the latest 10 day(s).
| Time | Temp. | Humidity | Pressure | Rain* | Wind** | Luminosity | Snow |
|---|---|---|---|---|---|---|---|
| 1777386962 | 12.78° C | 100% | 1013.7 hPa | 2.79 mm | - | - | - |
| 1777386362 | 12.78° C | 100% | 1013.7 hPa | 2.79 mm | - | - | - |
| 1777385761 | 12.22° C | 100% | 1013.8 hPa | 2.79 mm | - | - | - |
| 1777385161 | 12.22° C | 100% | 1013.8 hPa | 2.79 mm | - | - | - |
| 1777383960 | 12.22° C | 100% | 1013.9 hPa | 2.79 mm | - | - | - |
| 1777383360 | 12.22° C | 100% | 1013.8 hPa | 2.79 mm | - | - | - |
| 1777382760 | 11.67° C | 100% | 1013.6 hPa | 2.79 mm | - | - | - |
| 1777382158 | 11.67° C | 100% | 1013.6 hPa | 2.79 mm | - | - | - |
| 1777381558 | 11.67° C | 100% | 1013.7 hPa | 2.79 mm | - | - | - |
| 1777380958 | 11.67° C | 100% | 1013.7 hPa | 2.79 mm | - | - | - |
| 1777380357 | 11.11° C | 100% | 1013.8 hPa | 2.79 mm | - | - | - |
| 1777378556 | 11.11° C | 100% | 1013.8 hPa | 2.79 mm | - | - | - |
| 1777377956 | 11.11° C | 100% | 1013.7 hPa | 2.79 mm | - | - | - |
| 1777377355 | 11.11° C | 100% | 1013.6 hPa | 2.79 mm | - | - | - |
| 1777376755 | 10.56° C | 100% | 1013.4 hPa | 2.79 mm | - | - | - |
| 1777376155 | 10.56° C | 100% | 1013.1 hPa | 2.79 mm | - | - | - |
| 1777375554 | 10.56° C | 100% | 1012.8 hPa | 2.79 mm | - | - | - |
| 1777374954 | 10.56° C | 100% | 1013.3 hPa | 2.79 mm | - | - | - |
| 1777374354 | 10.56° C | 100% | 1012.9 hPa | 2.79 mm | - | - | - |
| 1777373753 | 10.56° C | 100% | 1010.8 hPa | 2.79 mm | - | - | - |
| 1777373153 | 10.56° C | 100% | 1011.8 hPa | 2.79 mm | - | - | - |
| 1777372553 | 11.11° C | 99% | 1013.1 hPa | 2.79 mm | - | - | - |
| 1777371352 | 11.11° C | 98% | 1014.4 hPa | 1.78 mm | - | - | - |
| 1777370751 | 11.67° C | 98% | 1014.5 hPa | 1.27 mm | - | - | - |
| 1777370151 | 11.67° C | 97% | 1014.5 hPa | 1.02 mm | - | - | - |
* Rain since midnight (hover to see other rain measurements)
** Current wind speed in m/s (hover to see current wind gust speed)